Regional Weather Roundup
Issued by NWS

Home | Current Version | Previous Version | Text Only | Print | Product List | Glossary Off
Versions: 1 2 3 4 5 6 7 8 9 10 11 12 13 14 15 16 17 18 19 20 21 22 23 24 25 26 27 28 29 30 31 32 33 34 35 36 37 38 39 40 41 42 43 44 45 46 47 48 49 50

000
ASUS43 KDMX 161006
RWRIA

WEATHER ROUNDUP FOR IOWA
NATIONAL WEATHER SERVICE DES MOINES IA
500 AM CDT MON OCT 16 2017

NOTE: "FAIR" INDICATES FEW OR NO CLOUDS BELOW 12,000 FEET WITH NO
SIGNIFICANT WEATHER AND/OR OBSTRUCTIONS TO VISIBILITY.

* - THESE STATIONS ARE NOT NWS STATIONS...THUS NOT UNDER NWS
QUALITY CONTROL.  THEY ALSO DO NOT REPORT WEATHER SUCH
AS PRECIPITATION OR FOG.

IAZ001>003-012>014-020>022-031>034-043>046-161100-
   NORTHWEST IOWA

CITY           SKY/WX    TMP DP  RH WIND       PRES   REMARKS
CARROLL *      CLEAR     43  39  87 W9        30.30R
CHEROKEE *     CLEAR     34  34 100 CALM      30.30R
DENISON *      CLEAR     34  32  93 CALM      30.33R
LE MARS *      CLEAR     34  32  93 CALM      30.29S
ORANGE CITY *  CLEAR     41  37  87 CALM      30.28S
SHELDON *      CLEAR     28  28 100 CALM      30.27S
SIOUX CITY     CLEAR     34  32  92 E3        30.30F
SPENCER        CLEAR     32  30  92 W3        30.29R
STORM LAKE *   CLEAR     39  34  81 W9        30.29R WCI  33
$$

IAZ055>058-069>071-079>083-090>094-161100-
   SOUTHWEST IOWA

CITY           SKY/WX    TMP DP  RH WIND       PRES   REMARKS
ATLANTIC *     CLEAR     34  34 100 CALM      30.33R
AUDUBON *      CLEAR     34  30  86 CALM      30.32S
CLARINDA *       N/A     34  34 100 SW3       30.37R
COUNCIL BLFS * CLEAR     41  39  93 S5        30.32S
CRESTON *      CLEAR     37  34  87 W7        30.33S WCI  32
HARLAN  *      CLEAR     34  34 100 CALM      30.35S
LAMONI         CLEAR     43  34  70 W7        30.33S
RED OAK *      CLEAR     36  36 100 CALM      30.34S
SHENANDOAH *   CLEAR     36  34  93 CALM      30.35S
$$

IAZ047>049-059>061-072>074-084-161100-
   CENTRAL IOWA

CITY           SKY/WX    TMP DP  RH WIND       PRES   REMARKS
AMES           CLEAR     35  35 100 CALM      30.30R
ANKENY *       CLEAR     36  36 100 CALM      30.31S
BOONE *        CLEAR     37  34  87 W8        30.28S WCI  31
CHARITON *     CLEAR     39  36  87 SW6       30.31S WCI  35
DES MOINES     CLEAR     42  35  76 SW5       30.30S
GRINNELL*      CLEAR     37  34  88 W5        30.30S WCI  34
KNOXVILLE *    CLEAR     39  34  81 SW8       30.30R WCI  34
MARSHALLTOWN   CLEAR     35  33  92 SW3       30.29R
NEWTON *       CLEAR     37  36  93 W7        30.30S WCI  32
PELLA *        CLEAR     43  36  77 W5        30.31S
PERRY *          N/A     36  35  97 W6        30.31R WCI  31
$$

IAZ004>006-015-016-023>025-035-036-161100-
   NORTH CENTRAL IOWA

CITY           SKY/WX    TMP DP  RH WIND       PRES   REMARKS
ALGONA *       CLEAR     36  36 100 W5        30.27R WCI  32
CLARION *      CLEAR     32  32 100 S3        30.28S
ESTHERVILLE    CLEAR     33  33 100 W5        30.27R WCI  29
FORT DODGE *   CLEAR     35  32  88 SW3       30.29R
MASON CITY     CLEAR     34  31  88 W7        30.29R WCI  28
FOREST CITY *  FOG       32  32 100 CALM      30.26S VSB 3/4
WEBSTER CITY * CLEAR     32  32 100 S3        30.27S
IOWA FALLS *     N/A     37  34  90 SW3       30.29S
$$

IAZ007>011-017>019-026>030-037>042-050>054-066-161100-
   NORTHEAST IOWA

CITY           SKY/WX    TMP DP  RH WIND       PRES   REMARKS
CEDAR RAPIDS   CLEAR     38  34  85 CALM      30.27S
CHARLES CITY * CLEAR     36  36 100 W5        30.27R WCI  32
CLINTON *      CLEAR     37  36  96 SW5       30.30R WCI  33
DECORAH *      CLEAR     37  36  93 W3        30.25R
DUBUQUE        CLEAR     38  35  89 SW8       30.26R WCI  32
MONTICELLO *   CLEAR     37  36  93 CALM      30.27S
OELWEIN *      CLEAR     37  36  93 CALM      30.28R
WATERLOO       CLEAR     34  32  92 CALM      30.27R
$$

IAZ064-065-067-068-078-161100-
   EAST CENTRAL IOWA

CITY           SKY/WX    TMP DP  RH WIND       PRES   REMARKS
DAVENPORT      CLEAR     39  37  92 SW3       30.31R
IOWA CITY      CLEAR     40  35  83 CALM      30.30S
MUSCATINE *    CLEAR     39  37  93 SW5       30.31R
QUAD CITIES    CLEAR     42  38  85 CALM      30.30R
$$

IAZ062-063-075>077-085>089-095>099-161100-
   SOUTHEAST IOWA

CITY           SKY/WX    TMP DP  RH WIND       PRES   REMARKS
BURLINGTON     CLEAR     40  39  97 SW3       30.31S
FAIRFIELD *    CLEAR     37  34  87 SW7       30.30S WCI  32
FORT MADISON * CLEAR     39  39 100 SW6       30.33R WCI  35
KEOKUK *       CLEAR     39  37  93 SW5       30.32S
OSKALOOSA *      N/A     37  34  89 W6        30.30F WCI  32
OTTUMWA        CLEAR     41  35  79 W9        30.30S
WASHINGTON *   CLEAR     37  36  93 SW7       30.31S WCI  32
$$

ABBREVIATIONS USED IN REMARKS
   TC - TEMPERATURES IN CELSIUS
  WCI - WIND CHILL INDEX
   HX - HEAT INDEX
  VSB - VISIBILITY
$$





USA.gov is the U.S. government's official web portal to all federal, state and local government web resources and services.